Location: Finkenbach
(49.5340°N, 8.9188°E)
Time: 21:23:15
(UTC+00:00)

Cosmos 1869 Rocket - Pass Details

Date: 17 June 2025
Orbit: 598 x 627 km, 82.5° (Epoch: 16 July)

Event Time Altitude Azimuth Distance (km) Brightness Sun altitude
Rises 20:47:18 0° 353° (N) 2,901 8.2 -9.0°
Reaches altitude 10° 20:49:34 10° 357° (N) 1,986 7.1 -9.3°
Maximum altitude 20:53:55 58° 77° (ENE) 713 3.8 -9.7°
Enters shadow 20:57:39 13° 156° (SSE) 1,743 5.2 -10.0°
